Notices

What's New in latest Release from April 7th, 2021:

- Updated Glossary, including Speed of Maximum Gust, and Total Hourly Precipitation

- Updated national and regional climate services offices contacts and prices information

- Addition of station inventory lists for 1981-2010, 1971-2000, and 1961-1990 Normals.

If you haven't already, please take our survey and provide feedback about our website: https://eccc.sondage-survey.ca/f/LanguageSelection.aspx?s=442ca660-fcf1-47c0-95a9-59707d6fd709

Hourly Data Report for December 05, 2018

CARBERRY CS
MANITOBA
Current Station Operator: ECCC - MSC

49°54'20.900" N
99°21'26.800" W
383.50 m
5010547
71170
WZE

Download Data

Hourly Data (December 2018)
Hourly Data Report for December 5, 2018
TIME
LST
Temp Definition
°C
Dew Point Definition
°C
Rel Hum Definition
%
Precip. Amount Definition
mm

Wind Dir Definition
10's deg

Wind Spd Definition
km/h
Visibility Definition
km
Stn Press Definition
kPa
Hmdx Definition


Wind Chill Definition


Weather Definition


00:00 -8.5 -10.8 83 0.0 27 19   96.69   -16 LegendNANA
01:00 -8.5 -11.1 81 0.0 27 24   96.66   -17 LegendNANA
02:00 -8.6 -11.1 82 0.0 28 17   96.67   -15 LegendNANA
03:00 -8.7 -10.9 83 0.0 28 18   96.70   -16 LegendNANA
04:00 -8.7 -10.8 85 0.0 28 12   96.72   -14 LegendNANA
05:00 -8.8 -10.6 87 0.0 27 9   96.72   -13 LegendNANA
06:00 -8.8 -10.5 88 0.0 28 16   96.74   -16 LegendNANA
07:00 -9.0 -10.3 90 0.0 28 12   96.79   -15 LegendNANA
08:00 -9.6 -11.4 87 0.0 28 12   96.85   -15 LegendNANA
09:00 -10.0 -11.9 86 0.0 29 10   96.90   -15 LegendNANA
10:00 -9.2 -11.5 83 0.0 34 11   97.02   -15 LegendNANA
11:00 -8.0 -10.4 83 0.0 33 7   97.07   -12 LegendNANA
12:00 -7.8 -10.0 84 0.0 35 6   97.10   -11 LegendNANA
13:00 -8.6 -12.5 73 0.0 36 24   97.16   -17 LegendNANA
14:00 -9.4 -12.7 77 0.0 1 23   97.27   -18 LegendNANA
15:00 -10.8 -13.6 80 0.0 1 22   97.38   -19 LegendNANA
16:00 -11.7 -15.0 77 0.0 1 23   97.48   -21 LegendNANA
17:00 -12.1 -15.6 75 0.0 1 24   97.57   -21 LegendNANA
18:00 -14.0 -17.3 76 0.0 1 26   97.69   -24 LegendNANA
19:00 -16.8 -19.8 77 0.0 36 15   97.80   -25 LegendNANA
20:00 -19.5 -22.1 80 0.0 36 13   97.88   -28 LegendNANA
21:00 -20.0 -22.4 81 0.0 1 11   97.93   -28 LegendNANA
22:00 -19.8 -22.1 82 0.0 35 7   97.99   -25 LegendNANA
23:00 -24.4 -26.5 83 0.0 29 4   98.03   -28 LegendNANA

Notes on Data Quality.

Legend

  • E = Estimated
  • M = Missing
  • NA = Not Available*
  • [empty] = Indicates an unobserved value
Date modified: